Location: Unspecified
(51.5147°N, 7.4673°E)
Time: 12:20:32
(UTC+01:00)

Explorer 7 - Pass Details

Date: 21 February 2026
Orbit: 430 x 541 km, 50.2° (Epoch: 8 March)

Event Time Altitude Azimuth Distance (km) Brightness Sun altitude
Rises 19:27:46 0° 281° (W) 2,508 12.0 -14.9°
Reaches altitude 10° 19:30:04 10° 269° (W) 1,650 10.7 -15.3°
Maximum altitude 19:33:19 28° 209° (SSW) 933 8.2 -15.8°
Enters shadow 19:36:00 14° 154° (SSE) 1,481 8.7 -16.2°
